Location: Oberkirch
(48.5323°N, 8.0787°E)
Time: 21:40:50
(UTC+00:00)

Tiros 1 - Pass Details

Date: 20 February 2026
Orbit: 618 x 649 km, 48.4° (Epoch: 7 March)

Event Time Altitude Azimuth Distance (km) Brightness Sun altitude
Rises 14:10:46 0° 276° (W) 2,890 11.0 22.2°
Reaches altitude 10° 14:15:46 10° 228° (SW) 1,975 11.7 21.6°
Maximum altitude 14:15:54 10° 227° (SW) 1,974 11.8 21.6°
Drops below altitude 10° 14:16:02 10° 225° (SW) 1,975 11.9 21.6°
Sets 14:21:02 0° 177° (S) 2,874 11.1 21.0°
